�������l�o���
Date,Time,MP-1(��Sv/h),MP-2(��Sv/h),MP-3(��Sv/h),MP-4(��Sv/h),MP-5(��Sv/h),MP-6(��Sv/h),MP-7(��Sv/h),MP-8(��Sv/h),����,����(m/s),���J
2020/12/22,00:00,0.674,0.964,0.613,1.219,0.854,0.381,0.673,0.636,���쐼,3.4,��
2020/12/22,00:10,0.674,0.966,0.614,1.218,0.854,0.380,0.675,0.636,���쐼,2.5,��
2020/12/22,00:20,0.672,0.965,0.610,1.219,0.855,0.380,0.674,0.637,�쐼,3.0,��
2020/12/22,00:30,0.672,0.964,0.610,1.221,0.854,0.380,0.676,0.636,�쐼,2.6,��
2020/12/22,00:40,0.674,0.964,0.613,1.219,0.855,0.381,0.675,0.636,���쐼,3.0,��
2020/12/22,00:50,0.672,0.964,0.612,1.220,0.856,0.380,0.675,0.635,���쐼,4.2,��
2020/12/22,01:00,0.673,0.966,0.612,1.218,0.853,0.379,0.674,0.636,���쐼,3.9,��
2020/12/22,01:10,0.674,0.965,0.612,1.219,0.854,0.379,0.675,0.634,��,3.6,��
2020/12/22,01:20,0.673,0.963,0.615,1.220,0.853,0.380,0.674,0.635,���쐼,2.8,��
2020/12/22,01:30,0.675,0.964,0.613,1.218,0.854,0.381,0.674,0.637,���쐼,2.6,��
2020/12/22,01:40,0.673,0.964,0.612,1.219,0.856,0.382,0.675,0.636,��,2.0,��
2020/12/22,01:50,0.674,0.964,0.612,1.219,0.855,0.380,0.675,0.638,���쐼,2.0,��
2020/12/22,02:00,0.674,0.963,0.613,1.220,0.854,0.381,0.676,0.635,���쐼,1.7,��
2020/12/22,02:10,0.672,0.964,0.613,1.220,0.854,0.381,0.675,0.637,�쐼,2.3,��
2020/12/22,02:20,0.673,0.963,0.612,1.219,0.853,0.380,0.675,0.636,�쐼,3.8,��
2020/12/22,02:30,0.673,0.964,0.613,1.217,0.854,0.381,0.675,0.635,�쐼,4.3,��
2020/12/22,02:40,0.671,0.964,0.611,1.217,0.854,0.381,0.676,0.634,�쐼,3.3,��
2020/12/22,02:50,0.673,0.965,0.613,1.219,0.853,0.379,0.676,0.636,���쐼,3.1,��
2020/12/22,03:00,0.672,0.963,0.613,1.222,0.854,0.379,0.673,0.637,���k��,2.5,��
2020/12/22,03:10,0.673,0.962,0.612,1.220,0.855,0.379,0.675,0.636,���k��,2.3,��
2020/12/22,03:20,0.674,0.965,0.613,1.221,0.854,0.381,0.675,0.637,��,2.5,��
2020/12/22,03:30,0.674,0.963,0.612,1.218,0.852,0.381,0.677,0.635,���k��,3.0,��
2020/12/22,03:40,0.674,0.963,0.613,1.220,0.852,0.379,0.675,0.636,��,2.6,��
2020/12/22,03:50,0.673,0.963,0.612,1.218,0.854,0.380,0.674,0.636,��,2.9,��
2020/12/22,04:00,0.672,0.962,0.613,1.217,0.854,0.382,0.674,0.636,��,2.1,��
2020/12/22,04:10,0.674,0.968,0.612,1.218,0.852,0.379,0.674,0.636,���쐼,2.6,��
2020/12/22,04:20,0.673,0.965,0.613,1.217,0.854,0.381,0.674,0.637,�쐼,4.1,��
2020/12/22,04:30,0.672,0.965,0.612,1.217,0.853,0.380,0.676,0.635,���쐼,4.8,��
2020/12/22,04:40,0.675,0.962,0.613,1.220,0.854,0.380,0.674,0.637,�쐼,5.7,��
2020/12/22,04:50,0.672,0.965,0.614,1.220,0.855,0.380,0.675,0.635,�쐼,4.4,��
2020/12/22,05:00,0.674,0.963,0.612,1.216,0.853,0.381,0.675,0.635,�쐼,4.0,��
2020/12/22,05:10,0.674,0.963,0.612,1.220,0.853,0.380,0.674,0.636,�쐼,4.7,��
2020/12/22,05:20,0.672,0.962,0.612,1.218,0.852,0.381,0.676,0.635,�쐼,5.3,��
2020/12/22,05:30,0.672,0.963,0.614,1.220,0.854,0.380,0.675,0.635,�쐼,5.0,��
2020/12/22,05:40,0.672,0.965,0.613,1.217,0.854,0.380,0.676,0.637,�쐼,5.7,��
2020/12/22,05:50,0.673,0.964,0.613,1.218,0.854,0.381,0.675,0.636,�쐼,5.6,��
2020/12/22,06:00,0.672,0.963,0.611,1.218,0.852,0.381,0.673,0.637,�쐼,5.5,��
2020/12/22,06:10,0.672,0.963,0.613,1.217,0.852,0.380,0.675,0.635,���쐼,5.9,��
2020/12/22,06:20,0.673,0.963,0.613,1.219,0.852,0.380,0.676,0.638,���쐼,5.3,��
2020/12/22,06:30,0.673,0.967,0.612,1.219,0.853,0.380,0.677,0.635,���쐼,6.0,��
2020/12/22,06:40,0.672,0.966,0.613,1.219,0.853,0.379,0.675,0.636,���쐼,4.4,��
2020/12/22,06:50,0.674,0.963,0.611,1.220,0.854,0.380,0.677,0.637,��,4.4,��
2020/12/22,07:00,0.673,0.963,0.612,1.218,0.852,0.380,0.675,0.635,��,4.2,��
2020/12/22,07:10,0.672,0.961,0.613,1.217,0.853,0.380,0.673,0.637,���쐼,4.7,��
2020/12/22,07:20,0.673,0.964,0.614,1.219,0.851,0.381,0.675,0.637,���쐼,5.2,��
2020/12/22,07:30,0.673,0.963,0.613,1.218,0.851,0.379,0.674,0.636,���쐼,4.9,��
2020/12/22,07:40,0.675,0.964,0.613,1.218,0.855,0.380,0.676,0.635,���쐼,4.7,��
2020/12/22,07:50,0.673,0.961,0.612,1.218,0.853,0.379,0.675,0.635,���쐼,5.3,��
2020/12/22,08:00,0.675,0.965,0.611,1.219,0.852,0.379,0.677,0.636,���쐼,5.4,��
2020/12/22,08:10,0.674,0.963,0.613,1.218,0.850,0.380,0.675,0.635,���쐼,5.4,��
2020/12/22,08:20,0.674,0.960,0.615,1.220,0.851,0.382,0.674,0.636,���쐼,7.4,��
2020/12/22,08:30,0.674,0.961,0.614,1.219,0.852,0.379,0.675,0.637,���쐼,5.4,��
2020/12/22,08:40,0.673,0.961,0.613,1.218,0.852,0.380,0.676,0.637,���쐼,4.1,��
2020/12/22,08:50,0.674,0.964,0.612,1.218,0.853,0.380,0.676,0.637,��,3.2,��
2020/12/22,09:00,0.676,0.960,0.615,1.220,0.853,0.379,0.677,0.637,��,2.9,��
2020/12/22,09:10,0.675,0.960,0.611,1.219,0.853,0.382,0.677,0.635,��,3.5,��
2020/12/22,09:20,0.676,0.961,0.612,1.220,0.853,0.381,0.677,0.637,��,5.4,��
2020/12/22,09:30,0.675,0.961,0.614,1.217,0.852,0.380,0.678,0.637,��,4.5,��
2020/12/22,09:40,0.676,0.960,0.614,1.221,0.854,0.380,0.677,0.635,��,4.0,��
2020/12/22,09:50,0.677,0.961,0.615,1.219,0.854,0.382,0.677,0.636,��,4.6,��
2020/12/22,10:00,0.677,0.961,0.615,1.217,0.854,0.381,0.676,0.638,��,3.3,��
2020/12/22,10:10,0.678,0.961,0.613,1.222,0.854,0.381,0.675,0.636,���쐼,4.2,��
2020/12/22,10:20,0.676,0.962,0.614,1.222,0.853,0.384,0.676,0.637,�쐼,3.1,��
2020/12/22,10:30,0.676,0.959,0.614,1.222,0.854,0.382,0.676,0.638,�쐼,5.9,��
2020/12/22,10:40,0.678,0.960,0.613,1.220,0.855,0.383,0.676,0.638,�쐼,6.1,��
2020/12/22,10:50,0.676,0.961,0.614,1.220,0.855,0.382,0.677,0.637,�쐼,6.2,��
2020/12/22,11:00,0.677,0.959,0.615,1.221,0.857,0.383,0.676,0.637,���쐼,6.5,��
2020/12/22,11:10,0.678,0.962,0.614,1.222,0.857,0.381,0.677,0.637,��쐼,5.6,��
2020/12/22,11:20,0.677,0.960,0.613,1.220,0.856,0.382,0.675,0.638,���쐼,3.2,��
2020/12/22,11:30,0.675,0.963,0.615,1.223,0.855,0.382,0.676,0.638,���쐼,3.8,��
2020/12/22,11:40,0.677,0.961,0.616,1.216,0.853,0.382,0.677,0.638,�쐼,4.6,��
2020/12/22,11:50,0.677,0.962,0.614,1.224,0.857,0.383,0.677,0.639,�쐼,3.9,��
2020/12/22,12:00,0.678,0.962,0.614,1.224,0.856,0.383,0.677,0.639,��쐼,5.5,��
2020/12/22,12:10,0.675,0.963,0.616,1.223,0.858,0.383,0.678,0.639,�쐼,3.8,��
2020/12/22,12:20,0.676,0.963,0.616,1.222,0.856,0.382,0.677,0.637,�쐼,4.9,��
2020/12/22,12:30,0.677,0.964,0.615,1.221,0.855,0.383,0.678,0.639,�쐼,5.2,��
2020/12/22,12:40,0.676,0.960,0.616,1.223,0.858,0.383,0.680,0.639,��,4.2,��
2020/12/22,12:50,0.676,0.961,0.615,1.219,0.857,0.383,0.679,0.637,���k��,4.4,��
2020/12/22,13:00,0.677,0.960,0.614,1.221,0.859,0.383,0.679,0.637,��,5.7,��
2020/12/22,13:10,0.677,0.960,0.614,1.220,0.858,0.383,0.679,0.635,��,3.8,��
2020/12/22,13:20,0.675,0.962,0.616,1.222,0.858,0.382,0.677,0.635,���쐼,4.0,��
2020/12/22,13:30,0.676,0.960,0.616,1.224,0.858,0.383,0.678,0.634,���쐼,3.5,��
2020/12/22,13:40,0.678,0.960,0.616,1.222,0.857,0.382,0.678,0.633,��,3.5,��
2020/12/22,13:50,0.677,0.960,0.618,1.223,0.859,0.382,0.678,0.636,��,2.6,��
2020/12/22,14:00,0.677,0.962,0.615,1.222,0.857,0.383,0.678,0.635,�쓌,3.3,��
2020/12/22,14:10,0.677,0.959,0.616,1.224,0.858,0.383,0.679,0.636,��쓌,3.6,��
2020/12/22,14:20,0.677,0.962,0.613,1.219,0.859,0.382,0.679,0.638,��쓌,3.0,��
2020/12/22,14:30,0.678,0.963,0.617,1.224,0.853,0.381,0.679,0.639,�쓌,4.1,��
2020/12/22,14:40,0.677,0.961,0.615,1.224,0.858,0.380,0.679,0.638,��쓌,4.5,��
2020/12/22,14:50,0.680,0.961,0.616,1.222,0.857,0.381,0.677,0.638,��쓌,3.2,��
2020/12/22,15:00,0.678,0.962,0.616,1.223,0.857,0.382,0.678,0.637,��쓌,4.0,��
2020/12/22,15:10,0.678,0.965,0.616,1.223,0.857,0.382,0.677,0.637,��쓌,3.5,��
2020/12/22,15:20,0.677,0.966,0.617,1.224,0.858,0.380,0.679,0.638,��쓌,3.2,��
2020/12/22,15:30,0.677,0.967,0.615,1.222,0.857,0.382,0.677,0.638,��쓌,3.4,��
2020/12/22,15:40,0.679,0.966,0.617,1.223,0.859,0.382,0.678,0.637,��쓌,3.7,��
2020/12/22,15:50,0.678,0.967,0.615,1.222,0.858,0.382,0.678,0.637,��쓌,4.2,��
2020/12/22,16:00,0.677,0.968,0.614,1.222,0.857,0.382,0.676,0.637,��쓌,4.2,��
2020/12/22,16:10,0.678,0.969,0.615,1.222,0.858,0.381,0.678,0.638,��쓌,4.0,��
2020/12/22,16:20,0.679,0.968,0.615,1.221,0.857,0.382,0.677,0.636,��,3.8,��
2020/12/22,16:30,0.676,0.970,0.616,1.222,0.856,0.382,0.679,0.638,��,3.3,��
2020/12/22,16:40,0.676,0.969,0.616,1.221,0.855,0.382,0.677,0.637,��,3.2,��
2020/12/22,16:50,0.676,0.968,0.616,1.222,0.856,0.382,0.677,0.636,��,2.6,��
2020/12/22,17:00,0.675,0.965,0.615,1.221,0.857,0.382,0.680,0.637,��,1.7,��
2020/12/22,17:10,0.677,0.967,0.616,1.224,0.855,0.383,0.677,0.636,��쐼,1.2,��
2020/12/22,17:20,0.677,0.968,0.615,1.221,0.857,0.381,0.678,0.636,��,1.7,��
2020/12/22,17:30,0.676,0.967,0.614,1.223,0.858,0.380,0.678,0.637,���k��,3.9,��
2020/12/22,17:40,0.677,0.967,0.616,1.222,0.856,0.382,0.677,0.636,���k��,4.9,��
2020/12/22,17:50,0.676,0.967,0.616,1.223,0.857,0.381,0.678,0.637,���k��,4.8,��
2020/12/22,18:00,0.676,0.968,0.615,1.224,0.858,0.383,0.678,0.636,���k��,4.1,��
2020/12/22,18:10,0.677,0.967,0.614,1.222,0.857,0.382,0.678,0.636,���k��,4.5,��
2020/12/22,18:20,0.677,0.967,0.616,1.222,0.856,0.381,0.676,0.637,���k��,4.3,��
2020/12/22,18:30,0.678,0.968,0.614,1.221,0.855,0.380,0.677,0.638,���k��,3.7,��
2020/12/22,18:40,0.676,0.964,0.614,1.220,0.855,0.382,0.678,0.637,���k��,3.3,��
2020/12/22,18:50,0.677,0.969,0.613,1.222,0.855,0.382,0.677,0.637,���k��,2.9,��
2020/12/22,19:00,0.677,0.969,0.615,1.222,0.857,0.381,0.675,0.636,��,2.8,��
2020/12/22,19:10,0.676,0.967,0.614,1.222,0.858,0.381,0.676,0.636,���k��,3.1,��
2020/12/22,19:20,0.676,0.968,0.614,1.221,0.856,0.381,0.677,0.636,���k��,3.5,��
2020/12/22,19:30,0.676,0.968,0.614,1.222,0.856,0.381,0.678,0.637,���k��,3.7,��
2020/12/22,19:40,0.676,0.969,0.615,1.224,0.858,0.382,0.677,0.636,���k��,5.0,��
2020/12/22,19:50,0.674,0.968,0.615,1.222,0.855,0.383,0.679,0.637,���k��,5.3,��
2020/12/22,20:00,0.676,0.969,0.616,1.222,0.858,0.381,0.677,0.637,��,5.8,��
2020/12/22,20:10,0.675,0.966,0.615,1.222,0.855,0.381,0.678,0.636,��,6.4,��
2020/12/22,20:20,0.675,0.968,0.614,1.220,0.856,0.382,0.678,0.636,��,5.2,��
2020/12/22,20:30,0.676,0.968,0.613,1.222,0.856,0.381,0.675,0.638,��,4.7,��
2020/12/22,20:40,0.676,0.967,0.614,1.223,0.856,0.381,0.676,0.637,��,4.2,��
2020/12/22,20:50,0.676,0.965,0.615,1.224,0.856,0.383,0.677,0.637,��,4.3,��
2020/12/22,21:00,0.676,0.967,0.615,1.223,0.857,0.381,0.677,0.637,��,4.9,��
2020/12/22,21:10,0.675,0.967,0.614,1.221,0.858,0.384,0.676,0.636,��,4.1,��
2020/12/22,21:20,0.677,0.966,0.613,1.225,0.858,0.382,0.675,0.638,��,3.5,��
2020/12/22,21:30,0.676,0.966,0.613,1.222,0.858,0.379,0.676,0.637,��,4.0,��
2020/12/22,21:40,0.675,0.965,0.614,1.222,0.857,0.381,0.676,0.636,��,4.3,��
2020/12/22,21:50,0.677,0.967,0.615,1.223,0.856,0.382,0.676,0.636,��,4.0,��
2020/12/22,22:00,0.677,0.967,0.612,1.221,0.857,0.382,0.676,0.637,��,3.9,��
2020/12/22,22:10,0.676,0.969,0.614,1.221,0.859,0.380,0.676,0.636,��,4.1,��
2020/12/22,22:20,0.676,0.966,0.615,1.219,0.857,0.382,0.677,0.637,��,3.2,��
2020/12/22,22:30,0.676,0.968,0.613,1.224,0.855,0.382,0.676,0.638,��,2.0,��
2020/12/22,22:40,0.677,0.969,0.613,1.222,0.855,0.381,0.676,0.637,���쐼,3.7,��
2020/12/22,22:50,0.676,0.966,0.615,1.222,0.856,0.382,0.675,0.636,���쐼,3.9,��
2020/12/22,23:00,0.678,0.965,0.614,1.222,0.858,0.382,0.676,0.636,��,4.3,��
2020/12/22,23:10,0.677,0.965,0.615,1.220,0.857,0.380,0.676,0.636,��,3.5,��
2020/12/22,23:20,0.674,0.966,0.615,1.222,0.856,0.381,0.677,0.638,��,4.2,��
2020/12/22,23:30,0.676,0.966,0.614,1.222,0.855,0.381,0.675,0.637,��,4.0,��
2020/12/22,23:40,0.674,0.967,0.614,1.222,0.854,0.381,0.677,0.637,��,3.4,��
2020/12/22,23:50,0.677,0.967,0.613,1.223,0.856,0.381,0.676,0.638,���k��,3.7,��
